DECAYED

OBJECT G, 43837 (Decayed)

Orbit data source: Space-Track

You're viewing an Uncataloged Satellite

Recently launched and/or uncataloged satellites may have evolving metadata. Metadata may include but not limited to: Owner, Maufacturer, Bus, Motor, and Mission.

OBJECT G, 43837 was a satellite in LEO that was launched on Fri, 07 Dec 2018 UTC via a CHANG ZHENG 2D launch vehicle from the Jiuquan Satellite Launch Center, China (JSC). Unknown objects in Earth's orbit typically refer to objects detected orbiting the Earth but have not yet been identified or cataloged. These objects could be anything from previously untracked satellites, spent rocket stages, debris from satellite collisions, or even natural meteoroids temporarily captured by Earth's gravity. This object's orbit decayed before it could be identified.

Not visible in the next 10 days
Identifier
43837, 2018-102G
Orbit
Decayed
Country
Flag of TBDTBD
Related business
None
Manufacturer
Jiutian
Mission
Decayed Commercial Communications
Bus & Motor
CUBESAT 6U, Unknown motor
Mass
10 kg wet, 10 kg dry
Launch date (UTC)
2018-12-07 (7 years ago)
Launch vehicle
CHANG ZHENG 2D
Launch site
Jiuquan Satellite Launch Center, China (JSC)
Object type
Unknown
Shape & HBR
Box, 0.1 m
Radar Cross Section
0.035 m², Medium (>0.1 m² and < 1m²)

Expand to show TLE details & history
Last TLE update: 9 months ago

TLE from 9 months ago
0 OBJECT G
1 43837U 18102G   24360.49917647  .11437047  25285-5  86122-3 0  9995
2 43837  97.4047  89.8647 0010652 284.8507  75.1612 16.40140843335226
Epoch: 2024-12-25T11:58Z
TLE epoch observation values (Epoch: 2024-12-25T11:58:48.847Z)
Latitude
-0.00003°
Longitude
175.66913°
Altitude
166.901 km
Speed
7.807 km/s
True Right ascension
05h 59m 27s
True Declination
0° 00' 00"
Sunlit
Object was in full shadow at epoch
Visualization orbit readout
Latitude
Unknown
Longitude
Unknown
Altitude
Unknown
Speed
Unknown
Apparent Right ascension
Unknown
Apparent Declination
Unknown
Sunlit
N/A
Visualization observer readout
Local Sidereal Time
09:26:19
Azimuth
Unknown
Elevation
Unknown
Doppler factor
Unknown
Orbital elements
Apogee altitude
169.202 km
Perigee altitude
155.269 km
Semi-major axis
6,540.372 km
Eccentricity
0.00107
Inclination
97.4047°
RAAN
89.8647°
Arg. of periapsis
284.8507°
True anomaly
75.27923°
Mean anomaly
75.1612°
Eccentric anomaly
75.22021°
Mean motion
4.10336 °/min
Orbital period
87.73 mins
BSTAR
0.00086122
Loading maneuver chart data...
Computing Atmospheric mass density...
Loading historical data...
Loading historical data...
Loading historical data...
Loading historical data...
Loading historical data...
Loading historical data...
Loading historical data...

Documentation

Showing up to 5 results
|